#timestamp,LO_Frequency,Hit,StdDev 
1655334015.8,286047002.4,N
1655334035.7,286047000.5,N
1655334055.5,286047000.4,N
1655334075.4,286047000.6,N
1655334095.2,286047000.2,N
1655334115.0,286047001.1,N
1655334115.9,286047001.1,N
1655334135.8,286046998.9,N
1655334155.6,286046998.4,N
1655334175.4,286047000.8,N
1655334195.3,286047000.6,N
1655334215.1,286047000.5,N
1655334235.9,286047000.3,N
1655334255.7,286047000.7,N
1655334275.5,286047001.0,N
1655334295.4,286046998.6,N
1655334315.2,286047000.6,N
1655334335.0,286046999.9,N
1655334335.9,286046999.9,N
1655334355.8,286047001.1,N
1655334375.6,286047000.5,N
1655334395.5,286047000.4,N
1655334415.3,286047001.2,N
1655334435.1,286047001.2,N
1655334455.9,286046998.6,N
1655334475.7,286046998.5,N
1655334495.5,286046998.8,N
1655334515.4,286046998.5,N
1655334535.2,286046998.6,N
1655334555.1,286046998.5,N
1655334556.0,286046998.5,N
1655334575.8,286047001.2,N
1655334595.6,286046998.1,N
1655334615.5,286046998.5,N
1655334635.3,286047000.9,N
1655334655.2,286046998.1,N
1655334675.9,286047000.7,N
1655334695.7,286046998.3,N
1655334715.6,286046998.7,N
1655334735.4,286047001.0,N
1655334755.2,286046998.2,N
1655334775.1,286046998.5,N
1655334776.0,286046998.5,N
1655334795.8,286047001.1,N
1655334815.7,286046998.5,N
1655334835.5,286047001.0,N
1655334855.3,286047000.8,N
1655334875.2,286047001.0,N
1655334895.0,286047000.0,N
1655334895.9,286047000.0,N
1655334915.8,286047000.3,N
1655334935.6,286047001.0,N
1655334955.4,286047000.8,N
1655334975.3,286047000.3,N
1655334995.1,286046998.5,N
1655335015.9,286047000.9,N
1655335035.7,286047002.4,N
1655335055.5,286046999.8,N
1655335075.4,286047000.2,N
1655335095.2,286047000.6,N
1655335115.1,286047000.9,N
1655335116.0,286047000.9,N
1655335135.8,286047002.3,N
1655335155.6,286047000.7,N
1655335175.5,286047000.9,N
1655335195.3,286047000.8,N
1655335215.2,286047000.9,N
1655335235.0,286046998.3,N
1655335235.9,286046998.3,N
1655335255.8,286046998.7,N
1655335275.6,286046998.6,N
1655335295.4,286046998.6,N
1655335315.3,286046998.2,N
1655335335.1,286047001.0,N
1655335355.8,286047002.3,N
1655335375.5,286047000.6,N
1655335395.3,286046999.9,N
1655335415.1,286046999.9,N
1655335435.9,286047002.8,N
1655335455.7,286047002.0,N
1655335475.6,286047002.5,N
1655335495.4,286047000.2,N
1655335515.2,286047000.1,N
1655335535.1,286046999.8,N
1655335536.0,286046999.8,N
1655335555.8,286047002.3,N
1655335575.7,286047001.8,N
1655335595.5,286047001.4,N
1655335615.3,286047004.1,Y
1655335635.2,286047004.3,P
1655335655.0,286047001.7,N
1655335655.9,286047001.7,N
1655335675.7,286047002.1,N
1655335695.6,286047000.4,N
1655335715.4,286047000.4,N
1655335735.3,286046999.9,N
1655335755.1,286047000.0,N
1655335756.0,286047000.0,N
1655335775.8,286047000.3,N
1655335795.7,286047000.5,N
1655335815.5,286047000.2,N
1655335835.4,286047002.7,N
1655335855.2,286047001.7,N
1655335875.0,286047004.1,Y
1655335875.9,286047004.1,P
1655335895.8,286047002.5,N
1655335915.6,286047002.0,N
1655335935.4,286047002.3,N
1655335955.3,286047001.6,N
1655335975.1,286047002.4,N
1655335995.9,286047002.3,N
1655336015.7,286047002.6,Y
1655336035.5,286047001.1,P
1655336055.4,286047001.2,N
1655336075.2,286046998.3,P
1655336095.0,286047001.1,N
1655336096.0,286047001.1,N
1655336115.8,286046998.8,N
1655336135.6,286046998.6,N
1655336155.5,286047000.8,N
1655336175.3,286046999.3,N
1655336195.1,286046999.6,N
1655336215.9,286046996.9,N
1655336235.7,286046999.5,N
1655336255.5,286046998.5,N
1655336275.4,286046999.1,N
1655336295.2,286046997.6,N
1655336315.1,286046997.5,N
1655336316.0,286046997.5,N
1655336335.8,286046997.4,N
1655336355.6,286046995.0,Y
1655336375.5,286046995.3,P
1655336395.3,286046993.3,P
1655336415.2,286046995.7,N
1655336435.9,286046993.8,N
1655336455.7,286046995.5,N
1655336475.6,286046995.2,N
1655336495.4,286046995.2,N
1655336515.2,286046995.2,N
1655336535.1,286046995.6,N
1655336536.0,286046995.6,N
1655336555.8,286046996.4,N
1655336575.7,286046995.5,Y
1655336595.5,286046998.3,P
1655336615.3,286046999.0,N
1655336635.2,286046999.2,N
1655336655.0,286046997.3,N
1655336655.9,286046997.3,N
1655336675.7,286046997.6,N
1655336695.6,286046997.9,N
1655336715.4,286046997.5,N
1655336735.3,286046997.0,N
1655336755.1,286046998.9,N
1655336775.8,286046996.9,Y
1655336795.7,286046998.3,P
1655336815.5,286046998.8,P
1655336835.4,286046996.7,P
1655336855.2,286046996.9,Y
1655336875.0,286047000.6,P
1655336875.9,286047000.6,N
1655336895.8,286047000.0,N
1655336915.6,286047001.6,N
1655336935.5,286047000.1,N
1655336955.3,286047000.2,N
1655336975.1,286047000.6,N
1655336995.9,286047000.0,N
1655337015.7,286047000.0,N
1655337035.5,286047000.5,N
1655337055.4,286047000.6,N
1655337075.2,286047000.6,N
1655337095.1,286047001.2,N
1655337096.0,286047001.2,N
1655337115.8,286047000.6,N
1655337135.6,286047002.6,Y
1655337155.5,286047002.7,P
1655337175.3,286046999.7,N
1655337195.1,286047002.5,N
1655337215.9,286047002.4,N
1655337235.7,286047002.8,N
1655337255.6,286046998.3,N
1655337275.4,286046998.1,N
1655337295.2,286046998.4,N
1655337315.1,286046998.7,N
1655337316.0,286046998.7,N
1655337335.8,286046998.7,N
1655337355.7,286046998.4,N
1655337375.5,286046999.3,N
1655337395.3,286046998.7,N
1655337415.2,286046998.4,N
1655337435.9,286046998.4,N
1655337455.7,286047000.9,N
1655337475.6,286047000.0,N
1655337495.4,286047000.0,N
1655337515.3,286047000.4,N
1655337535.1,286047001.1,N
1655337536.0,286047001.1,N
1655337555.8,286046998.2,N
1655337575.7,286046998.6,N
1655337595.5,286046998.2,N
